DW2057 Weather Reports


time (UTC)temp
F
wind
direction
speed
knots
gust
knots
rain 1hr
in
rain 24hr
in
rain mn
in
humidity
%
barometer
mb
20260504184250 37 297 0.0 0.0 0.00 0.00 0.00 76 1020.3
20260504184005 37 285 0.0 0.0 0.00 0.00 0.00 76 1026.7
20260504183746 37 281 0.0 0.0 0.00 0.00 0.00 75 1020.2
20260504183243 37 297 0.0 0.0 0.00 0.00 0.00 75 1020.1
20260504183004 37 292 0.0 0.0 0.00 0.00 0.00 75 1026.7
20260504182741 37 318 0.0 0.0 0.00 0.00 0.00 75 1019.8
20260504182505 37 356 0.0 0.0 0.00 0.00 0.00 75 1026.4
20260504182238 37 356 0.0 0.0 0.00 0.00 0.00 75 1019.9
20260504182004 37 356 0.0 0.0 0.00 0.00 0.00 75 1026.4
20260504181736 37 356 0.0 0.0 0.00 0.00 0.00 75 1019.8
20260504181505 37 357 0.0 0.0 0.00 0.00 0.00 74 1026.5
20260504181233 37 357 0.0 0.0 0.00 0.00 0.00 74 1019.4
20260504180732 37 356 0.0 0.9 0.00 0.00 0.00 74 1019.1
20260504180231 37 357 0.0 1.7 0.00 0.00 0.00 73 1019.5
20260504180004 37 358 0.0 0.0 0.00 0.00 0.00 73 1026.0
20260504175727 37 359 0.0 0.0 0.00 0.00 0.00 73 1019.4
20260504175505 37 359 0.0 1.7 0.00 0.00 0.00 73 1025.9
20260504175224 37 0 1.7 1.7 0.00 0.00 0.00 72 1019.1
20260504175004 37 345 0.9 2.6 0.00 0.00 0.00 72 1026.0
20260504174722 38 329 0.0 0.0 0.00 0.00 0.00 72 1019.0
20260504174505 38 328 0.9 1.7 0.00 0.00 0.00 72 1026.0
20260504174220 38 359 0.0 0.9 0.00 0.00 0.00 71 1019.1
20260504174005 38 359 0.0 0.0 0.00 0.00 0.00 71 1025.6
20260504173716 38 0 0.0 1.7 0.00 0.00 0.00 71 1019.0
20260504173504 38 302 0.9 1.7 0.00 0.00 0.00 70 1025.6
20260504173213 38 307 0.0 0.9 0.00 0.00 0.00 70 1018.7
20260504173004 38 307 0.9 2.6 0.00 0.00 0.00 70 1025.6
20260504172710 38 225 0.0 1.7 0.00 0.00 0.00 70 1018.4
20260504172206 38 283 0.0 0.0 0.00 0.00 0.00 69 1018.6
20260504171703 39 285 0.9 0.9 0.00 0.00 0.00 68 1018.6
20260504171200 39 271 0.0 0.9 0.00 0.00 0.00 68 1018.6
20260504170656 39 273 1.7 1.7 0.00 0.00 0.00 67 1018.5
20260504170505 39 243 0.9 2.6 0.00 0.00 0.00 67 1025.3
20260504170154 39 219 0.0 0.9 0.00 0.00 0.00 66 1018.4
20260504160112 41 289 3.5 4.3 0.00 0.00 0.00 62 1017.3
20260504151039 43 270 1.7 5.2 0.00 0.00 0.00 50 1016.1
20260504151005 43 185 1.7 5.2 0.00 0.00 0.00 49 1023.2
20260504150537 43 281 3.5 4.3 0.00 0.00 0.00 53 1015.9
20260504141003 46 301 2.6 4.3 0.00 0.45 0.45 47 1014.7
20260504140459 46 258 2.6 2.6 0.00 0.45 0.45 45 1014.7
20260504130505 48 279 4.3 6.1 0.00 0.00 0.44 46 1020.3
20260504130424 48 270 5.2 6.1 0.00 0.45 0.45 46 1013.3
20260504110505 51 258 0.0 1.7 0.00 0.00 0.44 43 1017.7
20260504110311 51 258 0.0 0.0 0.00 0.45 0.45 43 1010.2
20260504100229 53 271 3.5 6.1 0.00 0.45 0.45 35 1008.3
20260504082004 58 299 1.7 3.5 0.00 0.00 0.44 40 1015.0
20260504081622 58 281 1.7 6.1 0.00 0.45 0.45 40 1007.2
20260504081118 58 343 2.6 2.6 0.00 0.45 0.45 40 1006.8
20260504081005 58 293 1.7 4.3 0.00 0.00 0.44 40 1014.6
20260504080615 59 297 2.6 2.6 0.00 0.45 0.45 41 1006.7
20260504080505 59 297 3.5 3.5 0.00 0.00 0.44 41 1014.6
20260504080111 59 254 1.7 7.0 0.00 0.45 0.45 40 1006.5
20260504050505 67 161 1.7 4.3 0.00 0.00 0.44 26 1011.5
20260504050427 67 325 1.7 6.1 0.00 0.45 0.45 25 1003.4
20260504045924 67 285 3.5 5.2 0.00 0.45 0.45 24 1003.4
20260504045505 67 255 3.5 6.1 0.00 0.00 0.44 25 1011.7
20260504045420 67 325 1.7 6.1 0.00 0.45 0.45 25 1003.6
20260504044916 67 266 1.7 6.1 0.00 0.45 0.45 24 1003.8
20260504044505 67 307 4.3 10.4 0.00 0.00 0.44 22 1011.7
20260504044414 67 263 6.1 9.6 0.00 0.45 0.45 22 1003.8
20260504044005 68 264 4.3 6.1 0.00 0.00 0.44 23 1012.1
20260504043911 68 267 4.3 6.1 0.00 0.45 0.45 23 1003.7
20260504043505 67 216 1.7 3.5 0.00 0.00 0.44 25 1011.8
20260504043408 67 280 1.7 4.3 0.00 0.45 0.45 26 1003.8
20260504043004 67 277 2.6 3.5 0.00 0.00 0.44 28 1012.3
20260504042906 67 281 2.6 2.6 0.00 0.45 0.45 28 1004.0
20260504042402 68 194 4.3 6.1 0.00 0.45 0.45 26 1003.8
20260504042005 68 237 2.6 7.8 0.00 0.00 0.44 25 1012.0
20260504041858 68 243 0.9 2.6 0.00 0.45 0.45 26 1004.1
20260504041505 68 266 2.6 6.1 0.00 0.00 0.44 24 1012.2
20260504041354 69 272 4.3 5.2 0.00 0.45 0.45 24 1003.9
20260504040850 69 244 1.7 2.6 0.00 0.45 0.45 27 1003.7
20260504040348 69 317 2.6 4.3 0.00 0.45 0.45 24 1003.9
20260504040004 68 187 1.7 5.2 0.00 0.00 0.44 23 1012.0
20260504035844 68 183 1.7 7.0 0.00 0.45 0.45 22 1003.8
20260504035505 69 207 0.9 3.5 0.00 0.00 0.44 21 1011.8
20260504035342 69 135 0.9 4.3 0.00 0.45 0.45 22 1003.6
20260504035004 69 244 4.3 6.1 0.00 0.00 0.44 20 1012.0
20260504034838 69 293 4.3 7.0 0.00 0.45 0.45 19 1003.8
20260504034505 69 172 2.6 8.7 0.00 0.00 0.44 20 1011.6
20260504034336 69 232 2.6 9.6 0.00 0.45 0.45 20 1003.6
20260504034005 71 310 1.7 7.8 0.00 0.00 0.44 20 1011.9
20260504033833 72 330 5.2 8.7 0.00 0.45 0.45 18 1003.7
20260504033331 71 266 2.6 5.2 0.00 0.45 0.45 21 1003.6
20260504033006 71 237 3.5 9.6 0.00 0.00 0.44 19 1012.0
20260504032827 72 283 2.6 7.8 0.00 0.45 0.45 20 1003.8
20260504032504 71 105 1.7 7.8 0.00 0.00 0.44 21 1012.1
20260504032325 71 327 3.5 6.1 0.00 0.45 0.45 22 1003.9
20260504032005 71 245 5.2 6.1 0.00 0.00 0.44 20 1012.1
20260504031821 71 135 3.5 7.0 0.00 0.45 0.45 21 1004.0
20260504031506 71 223 2.6 4.3 0.00 0.00 0.44 24 1012.5
20260504031319 70 285 3.5 7.0 0.00 0.45 0.45 23 1004.3
20260504031004 70 290 6.1 10.4 0.00 0.00 0.44 24 1012.2
20260504030815 70 235 4.3 7.0 0.00 0.45 0.45 25 1004.3
20260504030312 71 264 5.2 6.1 0.00 0.45 0.45 22 1003.8
20260504030004 70 238 1.7 7.8 0.00 0.00 0.44 25 1012.1
20260504025808 70 286 3.5 7.8 0.00 0.45 0.45 23 1003.7
20260504025505 73 233 7.8 9.6 0.00 0.00 0.44 23 1012.1
20260504025306 73 285 1.7 5.2 0.00 0.45 0.45 24 1003.9
20260504025004 72 289 2.6 6.1 0.00 0.00 0.44 25 1011.9
20260504024802 71 281 1.7 5.2 0.00 0.45 0.45 26 1003.8
20260504024505 71 279 3.5 10.4 0.00 0.00 0.44 27 1012.1
20260504024258 71 286 3.5 9.6 0.00 0.45 0.45 25 1003.9
20260504024005 72 302 4.3 7.8 0.00 0.00 0.44 25 1011.9
20260504023755 72 213 4.3 6.1 0.00 0.45 0.45 26 1004.1
20260504023505 71 338 1.7 5.2 0.00 0.00 0.44 28 1011.9
20260504023252 71 246 4.3 9.6 0.00 0.45 0.45 27 1004.3
20260504023004 71 336 4.3 6.1 0.00 0.00 0.44 30 1012.4
20260504022747 71 282 3.5 12.2 0.00 0.45 0.45 30 1003.9
20260504022505 71 272 5.2 6.1 0.00 0.00 0.44 30 1012.2
20260504022244 71 174 1.7 6.1 0.00 0.45 0.45 29 1004.4
20260504021741 70 262 1.7 7.0 0.00 0.45 0.45 31 1004.7
20260504021238 70 213 3.5 8.7 0.00 0.45 0.45 30 1004.4
20260504020735 70 321 3.5 6.1 0.00 0.45 0.45 35 1004.6
20260504020505 70 329 4.3 5.2 0.00 0.00 0.44 34 1012.7
20260504020232 69 218 1.7 4.3 0.00 0.45 0.45 36 1004.6
20260504015728 70 281 0.9 5.2 0.00 0.45 0.45 35 1004.9
20260504015225 70 295 4.3 6.1 0.00 0.45 0.45 37 1004.8
20260504015005 70 290 4.3 5.2 0.00 0.00 0.44 34 1012.7
20260504014720 69 191 3.5 6.1 0.00 0.45 0.45 35 1004.4
20260504014217 69 3 2.6 4.3 0.00 0.45 0.45 37 1004.5
20260504014005 69 292 2.6 6.1 0.00 0.00 0.44 39 1012.7
20260504013715 69 252 2.6 7.8 0.00 0.45 0.45 40 1004.6
20260504013504 69 173 2.6 5.2 0.00 0.00 0.44 43 1013.0
20260504013212 69 262 0.9 4.3 0.00 0.45 0.45 41 1004.8
20260504012709 70 251 3.5 5.2 0.00 0.45 0.45 39 1004.8
20260504012504 69 227 3.5 5.2 0.00 0.00 0.44 39 1012.7
20260504012207 69 221 1.7 7.0 0.00 0.45 0.45 41 1004.8
20260504011703 71 236 2.6 5.2 0.00 0.45 0.45 41 1004.5
20260504011506 71 259 3.5 6.1 0.00 0.00 0.44 42 1012.8
20260504011200 71 266 1.7 7.0 0.00 0.45 0.45 40 1004.6
20260504010656 69 246 1.7 2.6 0.00 0.45 0.45 47 1004.4
20260504010505 68 238 5.2 8.7 0.00 0.00 0.44 44 1012.8
20260504010151 68 219 4.3 8.7 0.00 0.45 0.45 43 1004.7
20260504010005 68 307 2.6 6.1 0.00 0.00 0.44 44 1012.6
20260504005649 69 256 1.7 6.1 0.00 0.45 0.45 45 1004.7
20260504005505 69 252 2.6 8.7 0.00 0.00 0.44 44 1012.6
20260504005145 69 273 3.5 5.2 0.00 0.45 0.45 43 1004.3
20260504005004 69 303 3.5 5.2 0.00 0.00 0.44 45 1012.4
20260504004644 69 341 0.9 6.1 0.00 0.45 0.45 46 1004.5
20260504004140 69 233 1.7 2.6 0.00 0.45 0.45 46 1004.4
20260504003637 68 269 2.6 5.2 0.00 0.45 0.45 47 1004.7
20260504003505 68 210 4.3 11.3 0.00 0.00 0.44 45 1012.5
20260504003133 68 279 4.3 8.7 0.00 0.45 0.45 44 1004.3
20260504002630 68 287 2.6 6.1 0.00 0.45 0.45 48 1004.5
20260504002505 69 307 2.6 3.5 0.00 0.00 0.44 50 1012.5
20260504002128 69 215 1.7 4.3 0.00 0.45 0.45 52 1004.4
20260504002005 69 234 1.7 5.2 0.00 0.00 0.44 52 1012.8
20260504001626 68 249 0.9 2.6 0.00 0.45 0.45 53 1004.5
20260504001121 68 216 2.6 4.3 0.00 0.45 0.45 55 1004.4
20260504001005 67 252 1.7 3.5 0.00 0.00 0.44 53 1012.6
20260504000619 67 307 1.7 4.3 0.00 0.45 0.45 55 1004.4
20260504000505 67 272 3.5 4.3 0.00 0.00 0.44 56 1012.6
20260504000116 67 266 0.9 2.6 0.00 0.45 0.45 59 1004.5
20260503235614 67 345 0.9 1.7 0.00 0.45 0.45 61 1004.8
20260503235507 66 259 1.7 3.5 0.00 0.44 0.44 61 1012.6
20260503235110 67 232 0.9 2.6 0.00 0.45 0.45 61 1004.9
20260503235004 66 240 0.9 3.5 0.00 0.44 0.44 62 1012.6
20260503234609 64 274 1.7 4.3 0.00 0.45 0.45 59 1004.7
20260503234505 64 297 1.7 3.5 0.00 0.44 0.44 60 1012.8
20260503234106 62 288 0.9 2.6 0.00 0.45 0.45 66 1004.9
20260503233603 59 332 2.6 5.2 0.00 0.45 0.45 77 1004.9
20260503233505 59 25 1.7 2.6 0.00 0.00 0.44 78 1013.0
20260503233059 59 269 3.5 6.1 0.00 0.45 0.45 78 1004.9
20260503233005 59 266 3.5 3.5 0.00 0.00 0.44 78 1012.9
20260503232556 58 309 2.6 4.3 0.00 0.45 0.45 78 1004.8
20260503232505 58 270 1.7 3.5 0.00 0.00 0.44 78 1013.1
20260503232053 59 252 0.9 1.7 0.00 0.45 0.45 78 1005.0
20260503232005 59 283 0.0 2.6 0.00 0.00 0.44 78 1012.8
20260503231551 59 317 0.0 0.0 0.00 0.45 0.45 78 1004.7
20260503231047 59 351 0.0 0.0 0.00 0.45 0.45 78 1004.7
20260503231005 59 231 0.0 0.0 0.00 0.00 0.44 78 1012.8
20260503230544 59 261 0.0 0.0 0.00 0.45 0.45 78 1004.9
20260503230041 59 250 0.0 0.0 0.00 0.45 0.45 78 1004.4
20260503230005 58 268 0.0 0.0 0.00 0.00 0.44 78 1012.5
20260503225538 58 293 0.0 0.0 0.00 0.45 0.45 78 1004.6
20260503225504 58 293 0.0 3.5 0.00 0.00 0.44 78 1012.5
20260503225033 58 294 0.0 0.9 0.00 0.45 0.45 78 1004.7
20260503225004 58 293 0.0 1.7 0.00 0.00 0.44 78 1012.7
20260503224531 58 303 0.0 0.0 0.00 0.45 0.45 78 1004.7
20260503224505 58 316 0.0 0.0 0.00 0.00 0.44 78 1012.6
20260503224028 58 356 0.0 0.9 0.00 0.45 0.45 78 1004.6
20260503223526 58 16 0.0 0.0 0.00 0.45 0.45 78 1004.6
20260503223505 57 344 0.0 0.0 0.00 0.00 0.44 78 1012.6
20260503223021 57 331 0.0 0.0 0.00 0.45 0.45 78 1004.6
20260503223004 57 334 0.0 0.0 0.00 0.00 0.44 78 1012.8
20260503222520 56 2 0.0 0.0 0.00 0.45 0.45 78 1004.5
20260503222018 55 288 0.0 0.0 0.00 0.45 0.45 78 1004.5
20260503222004 55 273 0.0 0.0 0.00 0.00 0.44 78 1012.7
20260503221516 55 283 0.0 0.0 0.00 0.45 0.45 78 1004.5
20260503221013 55 209 0.0 0.9 0.00 0.45 0.45 78 1004.8
20260503220509 55 284 0.0 0.0 0.00 0.45 0.45 78 1004.8
20260503220504 55 284 0.0 0.0 0.00 0.00 0.44 78 1012.9
20260503220006 55 285 0.0 0.0 0.00 0.45 0.45 78 1004.7
20260503220004 55 285 0.0 0.0 0.00 0.00 0.44 78 1012.8
20260503215505 55 285 0.0 0.0 0.00 0.00 0.44 78 1012.6
20260503215503 55 285 0.0 0.0 0.00 0.45 0.45 78 1004.5
20260503215005 55 279 0.0 0.0 0.00 0.00 0.44 78 1012.8
20260503215000 55 279 0.0 0.0 0.00 0.45 0.45 78 1004.7
20260503214504 56 265 0.0 0.0 0.04 0.00 0.44 78 1012.6
20260503214458 56 265 0.0 0.0 0.05 0.45 0.45 78 1004.5
20260503214005 56 266 0.0 0.0 0.04 0.00 0.44 78 1012.7
20260503213955 56 266 0.0 0.0 0.05 0.45 0.45 78 1004.6
20260503213453 56 295 0.0 0.0 0.00 0.44 0.44 78 1004.4
20260503212949 56 230 0.0 0.0 0.07 0.44 0.44 78 1004.1
20260503212505 56 246 0.0 0.0 0.11 0.00 0.44 78 1012.3
20260503212447 56 246 0.0 0.0 0.12 0.44 0.44 78 1004.1
20260503211944 56 247 0.0 0.0 0.17 0.43 0.43 78 1004.1
20260503211441 55 64 0.0 0.0 0.24 0.42 0.42 78 1003.8
20260503211005 55 54 0.0 0.0 0.18 0.00 0.40 78 1012.2
20260503210936 55 54 0.0 0.0 0.19 0.40 0.40 78 1004.0
20260503210504 55 82 0.0 0.0 0.07 0.00 0.38 78 1012.4
20260503210433 55 82 0.0 0.0 0.07 0.38 0.38 78 1004.3
20260503210005 55 84 0.0 0.0 0.00 0.00 0.37 78 1012.4
20260503205928 55 84 0.0 0.0 0.00 0.37 0.37 78 1004.3
20260503205505 55 33 0.0 0.0 0.04 0.00 0.37 78 1012.1
20260503205425 55 33 0.0 0.0 0.05 0.37 0.37 78 1003.9
20260503205004 54 45 0.9 1.7 0.04 0.00 0.37 78 1012.1
20260503204921 54 45 0.9 0.9 0.05 0.37 0.37 78 1003.9
20260503204419 54 285 0.0 0.0 0.00 0.36 0.36 78 1003.9
20260503204005 54 95 0.0 0.0 0.00 0.00 0.36 78 1012.3
20260503203916 54 96 0.0 0.0 0.00 0.36 0.36 78 1004.1
20260503203504 54 52 0.0 0.0 0.00 0.00 0.36 78 1012.3
20260503203413 54 52 0.0 0.0 0.00 0.36 0.36 78 1003.8
20260503203004 54 25 0.0 0.0 0.07 0.00 0.36 78 1012.2
20260503202910 54 24 0.0 0.0 0.07 0.36 0.36 78 1003.7
20260503202505 54 62 0.0 0.0 0.14 0.00 0.36 78 1011.9
20260503202408 54 62 0.0 0.0 0.14 0.36 0.36 78 1003.8
20260503202005 54 49 0.0 0.0 0.11 0.00 0.35 78 1012.1
20260503201906 54 48 0.0 0.0 0.12 0.35 0.35 78 1003.9
20260503201505 54 33 0.0 0.0 0.04 0.00 0.33 78 1012.2
20260503201403 54 33 0.0 0.0 0.05 0.34 0.34 78 1004.0
20260503200901 54 32 0.0 1.7 0.07 0.33 0.33 78 1003.8
20260503200356 54 38 0.0 0.0 0.05 0.32 0.32 78 1004.0
20260503200005 54 38 0.0 0.0 0.04 0.00 0.31 78 1011.9
20260503195854 54 38 0.0 0.0 0.12 0.32 0.32 78 1003.9
20260503195350 54 40 0.0 0.9 0.12 0.31 0.31 78 1003.8
20260503195005 54 52 0.0 0.0 0.30 0.00 0.31 78 1011.9
20260503194847 54 52 0.0 0.0 0.28 0.30 0.30 78 1003.8
20260503194343 54 53 0.0 0.0 0.42 0.28 0.28 78 1004.0
20260503193840 53 39 0.0 0.0 0.38 0.25 0.25 78 1004.4
20260503193505 53 46 0.0 1.7 0.23 0.00 0.22 78 1012.2
20260503193336 53 91 0.0 0.9 0.17 0.21 0.21 78 1004.1
20260503193005 54 32 1.7 3.5 0.04 0.00 0.18 78 1012.2
20260503192832 54 36 1.7 2.6 0.05 0.19 0.19 78 1004.0
20260503192504 54 84 0.0 1.7 0.00 0.00 0.18 78 1012.3
20260503192327 54 165 0.0 0.9 0.00 0.18 0.18 78 1004.3
20260503192005 54 42 0.0 3.5 0.00 0.00 0.18 78 1011.8
20260503191824 54 38 0.9 2.6 0.00 0.18 0.18 78 1003.7
20260503191505 54 97 0.0 0.0 0.00 0.00 0.18 78 1012.1
20260503191321 54 97 0.0 0.0 0.00 0.18 0.18 78 1003.8
20260503190818 54 165 0.0 0.0 0.00 0.18 0.18 78 1004.0
20260503190505 54 32 0.0 1.7 0.07 0.00 0.18 78 1012.3
20260503190315 54 29 1.7 1.7 0.07 0.18 0.18 78 1004.0
20260503185812 54 54 0.0 0.0 0.12 0.18 0.18 78 1004.1
20260503185505 54 53 0.0 0.0 0.04 0.00 0.16 78 1012.8
20260503185308 54 52 0.0 0.0 0.12 0.17 0.17 78 1004.5
20260503185004 53 53 0.0 0.0 0.07 0.00 0.16 78 1012.9
20260503184807 53 53 0.0 0.0 0.12 0.16 0.16 78 1004.8